Crane Lake, MN

10:30 PM CDT on April 26, 2018 (GMT -0500)
Crane Lake

Weather History for KCDD - December, 2011

Change the Weather History Date:

Monday, December 12, 2011

  Actual Average Record
Temperature  
Mean Temperature 18 °F -  
Max Temperature 26 °F 24 °F 44 °F (1998)
Min Temperature 10 °F 9 °F -27 °F (2013)
Degree Days  
Heating Degree Days 47    
Moisture  
Dew Point 19 °F    
Average Humidity 88    
Maximum Humidity 100    
Minimum Humidity 74    
Precipitation  
Precipitation 0.00 in - - ()
Sea Level Pressure  
Sea Level Pressure 30.22 in    
Wind  
Wind Speed 1 mph (North)    
Max Wind Speed 6 mph    
Max Gust Speed -    
Visibility 8 miles    
Events      
Averages and records for this station are not official NWS values.
T = Trace of Precipitation, MM = Missing Value Source: NWS Daily Summary

Daily Weather History Graph

Daily Weather History Graph

Search for Another Location

Airport or City:

Astronomy

Dec. 12, 2011 Rise Set
Actual Time 7:51 AM CST 4:15 PM CST
Civil Twilight 7:15 AM CST 4:52 PM CST
Nautical Twilight 6:35 AM CST 5:31 PM CST
Astronomical Twilight 5:57 AM CST 6:09 PM CST
Moon 6:31 PM CST (12/12) 9:20 AM CST (12/12)
Length of Visible Light 9h 37m
Length of Day
8h 24m
Waning Gibbous, 95% of the Moon is Illuminated
Dec 12
Waning Gibbous
Dec 17
Last Quarter
Dec 24
New
Jan 1
First Quarter
Jan 9
Full

Hourly Weather History & Observations

Time (CST) Temp. Windchill Dew Point Humidity Pressure Visibility Wind Dir Wind Speed Gust Speed Precip Events Conditions
12:10 AM 12.2 °F - 10.4 °F 92% 30.06 in 10.0 mi Calm Calm - N/A   Clear
12:30 AM 12.2 °F - 10.4 °F 92% 30.07 in 10.0 mi Calm Calm - N/A   Clear
12:50 AM 10.4 °F - 8.6 °F 92% 30.07 in 10.0 mi Calm Calm - N/A   Clear
1:30 AM 12.2 °F - 10.4 °F 92% 30.08 in 10.0 mi Calm Calm - N/A   Clear
1:50 AM 14.0 °F - 12.2 °F 93% 30.08 in 10.0 mi Calm Calm - N/A   Scattered Clouds
2:10 AM 15.8 °F - 14.0 °F 93% 30.09 in 10.0 mi Calm Calm - N/A   Clear
2:30 AM 17.6 °F - 15.8 °F 93% 30.10 in 10.0 mi Calm Calm - N/A   Scattered Clouds
2:50 AM 17.6 °F - 17.6 °F 100% 30.11 in 10.0 mi Calm Calm - N/A   Mostly Cloudy
3:10 AM 19.4 °F - 17.6 °F 93% 30.10 in 10.0 mi Calm Calm - N/A   Scattered Clouds
3:30 AM 19.4 °F - 17.6 °F 93% 30.11 in 10.0 mi Calm Calm - N/A   Scattered Clouds
3:50 AM 21.2 °F - 19.4 °F 93% 30.11 in 10.0 mi Calm Calm - N/A   Clear
4:10 AM 21.2 °F - 19.4 °F 93% 30.11 in 10.0 mi Calm Calm - N/A   Clear
4:30 AM 21.2 °F - 19.4 °F 93% 30.12 in 10.0 mi Calm Calm - N/A   Scattered Clouds
5:10 AM 21.2 °F - 21.2 °F 100% 30.13 in 10.0 mi Calm Calm - N/A   Overcast
5:30 AM 21.2 °F - 21.2 °F 100% 30.13 in 10.0 mi Calm Calm - N/A   Overcast
5:50 AM 23.0 °F - 21.2 °F 93% 30.14 in 10.0 mi Calm Calm - N/A   Overcast
6:10 AM 23.0 °F - 21.2 °F 93% 30.15 in 7.0 mi Calm Calm - N/A   Overcast
6:50 AM 24.8 °F - 24.8 °F 100% 30.17 in 2.5 mi Calm Calm - N/A   Overcast
7:10 AM 24.8 °F - 23.0 °F 93% 30.17 in 3.0 mi Calm Calm - N/A   Overcast
7:30 AM 24.8 °F - 23.0 °F 93% 30.18 in 3.0 mi Calm Calm - N/A   Overcast
7:50 AM 26.6 °F - 24.8 °F 93% 30.18 in 2.0 mi Calm Calm - N/A   Overcast
8:10 AM 26.6 °F - 24.8 °F 93% 30.19 in 2.0 mi Calm Calm - N/A   Overcast
8:30 AM 26.6 °F - 24.8 °F 93% 30.19 in 2.0 mi Calm Calm - N/A   Overcast
8:50 AM 26.6 °F - 24.8 °F 93% 30.20 in 1.8 mi Calm Calm - N/A   Overcast
9:10 AM 26.6 °F - 24.8 °F 93% 30.21 in 1.8 mi Calm Calm - N/A   Overcast
9:30 AM 26.6 °F 22.6 °F 24.8 °F 93% 30.21 in 1.8 mi North 3.5 mph - N/A   Overcast
9:50 AM 26.6 °F - 24.8 °F 93% 30.22 in 2.0 mi Calm Calm - N/A   Overcast
10:10 AM 24.8 °F 20.5 °F 24.8 °F 100% 30.23 in 2.0 mi North 3.5 mph - N/A   Overcast
10:30 AM 24.8 °F - 24.8 °F 100% 30.23 in 3.0 mi Calm Calm - N/A   Overcast
10:50 AM 24.8 °F 20.5 °F 23.0 °F 93% 30.23 in 4.0 mi North 3.5 mph - N/A   Overcast
11:11 AM 24.8 °F - 23.0 °F 93% 30.23 in 5.0 mi Calm Calm - N/A   Overcast
11:30 AM 24.8 °F 20.5 °F 23.0 °F 93% 30.24 in 4.0 mi North 3.5 mph - N/A   Overcast
11:50 AM 24.8 °F 20.5 °F 23.0 °F 93% 30.24 in 4.0 mi NNW 3.5 mph - N/A   Mostly Cloudy
12:10 PM 24.8 °F 17.9 °F 21.2 °F 86% 30.24 in 5.0 mi North 5.8 mph - N/A   Scattered Clouds
12:34 PM 24.8 °F 20.5 °F 21.2 °F 86% 30.24 in 7.0 mi North 3.5 mph - N/A   Overcast
12:50 PM 24.8 °F 19.1 °F 21.2 °F 86% 30.25 in 10.0 mi North 4.6 mph - N/A   Overcast
1:14 PM 24.8 °F 20.5 °F 21.2 °F 86% 30.25 in 10.0 mi NNW 3.5 mph - N/A   Scattered Clouds
1:30 PM 24.8 °F 19.1 °F 21.2 °F 86% 30.25 in 10.0 mi North 4.6 mph - N/A   Scattered Clouds
1:50 PM 24.8 °F 20.5 °F 19.4 °F 80% 30.25 in 10.0 mi North 3.5 mph - N/A   Scattered Clouds
2:10 PM 24.8 °F 20.5 °F 19.4 °F 80% 30.25 in 10.0 mi North 3.5 mph - N/A   Mostly Cloudy
2:34 PM 24.8 °F 20.5 °F 19.4 °F 80% 30.25 in 10.0 mi North 3.5 mph - N/A   Mostly Cloudy
2:50 PM 24.8 °F - 19.4 °F 80% 30.26 in 10.0 mi Calm Calm - N/A   Mostly Cloudy
3:10 PM 24.8 °F 20.5 °F 19.4 °F 80% 30.27 in 10.0 mi North 3.5 mph - N/A   Mostly Cloudy
3:30 PM 24.8 °F 20.5 °F 19.4 °F 80% 30.28 in 10.0 mi NNW 3.5 mph - N/A   Mostly Cloudy
3:50 PM 24.8 °F - 19.4 °F 80% 30.28 in 10.0 mi Calm Calm - N/A   Mostly Cloudy
4:10 PM 24.8 °F - 19.4 °F 80% 30.29 in 10.0 mi Calm Calm - N/A   Mostly Cloudy
4:30 PM 24.8 °F - 19.4 °F 80% 30.29 in 10.0 mi Calm Calm - N/A   Mostly Cloudy
4:50 PM 24.8 °F - 19.4 °F 80% 30.30 in 10.0 mi Calm Calm - N/A   Mostly Cloudy
5:10 PM 24.8 °F - 19.4 °F 80% 30.30 in 10.0 mi Calm Calm - N/A   Overcast
5:30 PM 24.8 °F - 19.4 °F 80% 30.30 in 10.0 mi Calm Calm - N/A   Overcast
5:50 PM 24.8 °F - 17.6 °F 74% 30.31 in 10.0 mi Calm Calm - N/A   Overcast
6:10 PM 24.8 °F - 17.6 °F 74% 30.32 in 10.0 mi Calm Calm - N/A   Overcast
6:30 PM 24.8 °F 20.5 °F 17.6 °F 74% 30.33 in 10.0 mi North 3.5 mph - N/A   Overcast
6:50 PM 24.8 °F - 17.6 °F 74% 30.34 in 10.0 mi Calm Calm - N/A   Overcast
7:10 PM 24.8 °F 19.1 °F 17.6 °F 74% 30.35 in 10.0 mi NNE 4.6 mph - N/A   Overcast
7:30 PM 23.0 °F 17.0 °F 15.8 °F 74% 30.35 in 10.0 mi North 4.6 mph - N/A   Overcast
7:50 PM 21.2 °F 14.9 °F 15.8 °F 80% 30.35 in 10.0 mi North 4.6 mph - N/A   Overcast
8:10 PM 21.2 °F 13.6 °F 15.8 °F 80% 30.36 in 10.0 mi North 5.8 mph - N/A   Overcast
8:30 PM 19.4 °F 12.8 °F 14.0 °F 80% 30.36 in 10.0 mi North 4.6 mph - N/A   Overcast
8:50 PM 17.6 °F - 15.8 °F 93% 30.36 in 10.0 mi Calm Calm - N/A   Mostly Cloudy
9:10 PM 17.6 °F - 15.8 °F 93% 30.37 in 10.0 mi Calm Calm - N/A   Mostly Cloudy
9:30 PM 17.6 °F - 15.8 °F 93% 30.37 in 10.0 mi Calm Calm - N/A   Mostly Cloudy
9:50 PM 17.6 °F - 15.8 °F 93% 30.37 in 10.0 mi Calm Calm - N/A   Overcast
10:10 PM 17.6 °F - 15.8 °F 93% 30.37 in 10.0 mi Calm Calm - N/A   Overcast
10:30 PM 17.6 °F - 15.8 °F 93% 30.37 in 10.0 mi Calm Calm - N/A   Overcast
10:50 PM 17.6 °F - 15.8 °F 93% 30.37 in 10.0 mi Calm Calm - N/A   Overcast
11:10 PM 17.6 °F 12.3 °F 15.8 °F 93% 30.38 in 10.0 mi NNE 3.5 mph - N/A   Overcast
11:50 PM 17.6 °F - 17.6 °F 100% 30.38 in 10.0 mi Calm Calm - N/A   Overcast